Wind_Speed
36 36 35 34 33 34 34 33 33 33 34 34 34 33 34 34 33 33 33 32 32 32 32 33 34 35 35 36 37 38 38 39 39 39 39 39 39 38 38 36 35 35 35 35 34 33 32 32 31 30 29 29 29 29 29 29 29 29 30 31 33 33 33 33 33 33 34 34 35 35 35 35 35 34 34 33 33 33 33 34 34 35 36 38 40 42
34 33 33 32 32 32 33 33 32 32 33 33 34 34 34 34 34 34 33 33 32 32 32 33 33 33 33 33 33 34 34 35 36 37 37 37 37 36 36 36 36 36 36 36 36 35 34 33 32 31 30 29 29 28 28 28 28 29 29 29 31 32 32 33 33 33 34 34 35 35 36 36 36 36 35 35 35 34 34 33 33 34 35 36 38 40
33 32 32 30 30 30 31 32 32 32 32 33 33 34 34 34 34 34 34 33 33 32 32 32 32 31 31 30 29 28 28 29 30 31 33 33 34 34 35 35 36 36 36 36 36 36 35 34 32 31 30 30 29 29 29 29 29 29 29 29 29 30 32 32 33 33 34 34 35 35 35 36 36 37 37 37 37 36 35 34 34 34 34 35 36 38
32 31 31 30 30 30 31 31 32 32 32 32 33 33 33 34 34 35 35 34 34 34 33 33 33 33 33 32 31 30 29 28 29 29 30 31 32 33 34 34 35 36 36 36 35 35 35 33 32 31 30 30 30 30 30 30 30 30 30 29 29 30 30 31 32 33 34 34 35 35 35 36 36 36 37 37 38 38 37 36 35 35 34 34 34 35
32 31 30 30 30 31 31 31 31 31 32 33 34 35 35 35 35 36 36 35 35 35 35 35 35 35 35 35 34 33 32 31 31 30 31 31 31 32 33 33 34 35 35 35 35 34 33 32 31 31 31 31 31 31 31 31 30 30 30 30 30 30 30 31 31 32 33 34 34 35 35 36 36 36 36 37 37 38 38 38 37 36 35 35 34 33
32 31 31 30 30 31 32 32 32 32 33 34 35 36 36 36 36 37 37 37 37 37 37 36 36 36 36 35 35 34 33 32 31 31 31 31 31 32 32 33 33 33 33 33 33 32 32 31 31 31 31 31 31 31 31 31 30 30 30 30 30 30 30 30 31 31 32 33 34 35 35 36 36 36 36 36 36 37 37 38 38 38 37 36 34 32
33 31 31 30 31 33 34 34 34 33 33 34 35 36 37 37 37 38 38 38 38 38 37 37 37 36 36 35 34 33 32 31 31 31 31 31 31 31 32 32 33 33 32 32 32 32 31 31 31 31 31 31 31 30 30 30 30 29 29 29 29 29 29 30 30 31 31 32 33 34 35 36 36 36 37 36 36 36 36 37 37 38 38 38 35 32
35 33 33 33 34 35 36 36 35 34 33 34 35 36 37 38 38 37 38 37 37 37 37 37 36 35 35 34 33 32 31 31 31 31 31 31 31 31 31 31 31 32 32 32 32 32 32 31 31 31 31 31 30 29 29 29 28 28 28 29 29 29 29 30 30 31 31 32 33 34 35 35 36 36 36 36 36 36 35 35 36 37 38 38 36 33
36 36 35 35 35 35 35 35 35 34 33 33 34 35 35 36 36 35 35 35 35 35 35 35 35 35 34 33 32 31 31 31 31 31 31 31 31 30 30 30 31 31 32 32 32 32 32 32 31 31 30 30 29 28 28 28 28 28 28 28 29 29 30 30 31 31 32 32 33 33 34 35 35 36 36 36 36 36 35 34 35 36 37 38 37 35
36 37 37 36 35 35 35 36 36 36 35 34 35 36 36 37 36 35 35 35 34 34 34 33 34 35 35 34 33 32 32 31 31 31 31 31 30 30 30 31 31 32 32 32 32 32 32 31 31 30 30 29 28 27 27 27 28 28 29 29 29 30 30 30 31 31 31 31 32 32 33 34 35 35 36 36 36 35 34 33 34 35 36 38 37 36
38 37 37 37 37 36 35 37 37 37 37 36 36 36 37 37 37 36 36 35 35 34 33 33 33 34 34 34 33 33 32 32 32 32 31 31 30 30 31 31 32 32 32 32 32 32 32 31 31 31 30 29 28 28 28 29 29 29 29 29 30 30 30 30 29 29 29 30 30 31 31 33 34 35 35 36 36 35 34 33 32 33 35 36 37 37
38 38 37 36 36 36 36 37 37 37 35 33 34 35 36 37 36 35 34 35 35 34 33 33 33 33 33 33 33 33 33 33 34 34 33 32 31 31 31 31 31 31 31 32 32 32 31 31 31 30 30 29 29 28 28 28 28 28 29 29 29 29 29 28 28 28 28 28 28 29 29 30 32 33 34 35 35 35 33 32 32 32 33 34 36 36
38 38 37 37 37 37 36 35 34 33 32 31 32 33 35 35 34 33 33 34 35 35 34 34 34 34 34 33 32 33 33 34 35 35 35 34 33 32 31 31 31 31 30 30 30 30 29 28 28 28 27 27 27 26 26 27 27 28 28 29 29 29 28 27 27 26 26 26 26 26 27 28 29 31 32 34 34 34 33 32 31 31 32 33 34 34
38 37 37 37 36 36 34 33 33 33 32 32 32 32 33 33 33 33 34 35 36 36 36 36 36 36 35 34 34 34 34 35 35 35 35 35 33 32 32 32 32 31 30 30 29 28 26 26 26 26 25 25 25 25 25 26 27 28 28 29 29 28 27 26 25 24 24 24 24 24 25 26 27 28 30 32 33 33 33 31 30 30 30 31 32 33
37 36 35 35 34 34 33 32 33 33 33 33 33 32 33 33 33 34 34 35 36 36 36 36 36 37 36 35 35 34 34 34 34 34 34 34 33 31 30 31 31 30 29 29 29 27 25 25 25 25 24 24 24 25 25 26 27 28 28 28 27 26 25 24 23 23 23 23 23 23 23 24 25 26 28 29 31 32 32 31 30 29 29 30 30 31
35 34 34 34 33 33 32 32 32 33 33 32 32 32 32 32 33 33 33 34 35 34 34 34 34 35 35 35 34 32 31 31 31 32 33 33 31 29 28 28 29 29 29 28 28 27 26 25 25 25 25 25 24 25 25 26 27 27 27 27 26 25 23 22 21 21 22 22 22 22 23 23 24 25 26 27 29 30 32 31 30 29 28 28 29 30
31 31 31 32 32 32 30 30 30 30 31 31 31 31 31 32 32 32 32 33 33 32 32 31 30 30 30 31 31 29 27 26 27 29 30 30 30 29 27 26 27 28 28 28 28 27 26 26 26 25 25 25 25 25 25 26 26 26 26 26 25 23 22 21 21 21 22 22 22 22 23 23 24 24 25 26 27 29 30 31 31 30 28 27 28 28
29 29 28 28 29 29 28 28 28 28 29 29 30 31 31 32 32 32 32 32 32 32 32 31 30 29 28 28 27 26 25 23 24 26 27 29 30 30 28 27 27 28 29 29 28 27 26 26 26 26 25 25 25 25 25 25 26 25 25 25 24 23 22 21 21 21 22 22 22 22 23 23 23 24 24 25 26 27 28 30 31 30 29 28 27 27
32 31 30 29 29 29 29 28 28 29 29 30 30 31 32 32 33 33 33 33 33 32 32 32 31 31 31 31 30 29 27 25 24 25 27 29 31 31 29 29 29 29 29 29 28 26 26 26 26 26 26 25 25 25 25 25 25 25 24 24 23 22 22 21 21 21 21 21 21 22 22 23 23 24 24 25 25 26 26 28 29 29 29 28 28 27
34 33 32 31 30 30 30 32 32 32 31 31 31 32 33 33 33 33 34 33 33 33 33 33 33 33 33 34 33 32 29 27 26 27 28 30 32 32 31 31 31 31 31 30 28 27 27 27 27 26 26 25 25 25 24 24 24 24 23 23 22 21 21 20 20 21 21 21 22 22 22 23 23 24 25 25 26 26 26 26 27 27 27 27 27 28
34 33 32 32 32 32 32 33 33 32 31 31 32 32 33 33 33 33 34 34 34 34 34 33 34 34 34 34 33 32 29 28 28 28 30 32 33 33 33 32 32 32 33 32 30 29 28 28 27 26 25 25 24 23 23 23 23 23 22 22 21 21 20 20 20 20 21 22 22 22 23 23 23 24 24 25 26 27 27 27 28 27 26 25 25 26
33 33 33 33 33 33 33 33 32 31 30 31 31 32 32 32 33 33 33 33 33 34 34 35 35 34 33 33 33 32 30 30 30 30 30 31 33 34 33 32 32 32 34 33 32 30 29 28 28 26 25 24 23 23 22 22 22 22 22 21 21 20 20 20 20 20 21 21 22 22 23 23 23 23 23 24 25 26 27 28 29 29 27 24 23 25
33 33 33 32 32 33 32 31 30 29 29 30 30 31 31 32 32 33 33 33 33 34 34 34 33 33 32 33 33 33 32 32 32 31 30 31 33 35 33 31 31 32 34 34 33 31 30 29 28 27 25 24 23 22 22 22 22 22 21 21 20 20 20 20 20 20 20 21 21 22 22 23 23 23 23 23 23 24 25 27 29 30 29 26 23 23
33 33 33 32 32 31 31 30 30 29 29 29 30 30 31 31 32 33 33 34 34 35 35 35 35 35 35 35 35 35 35 34 32 31 31 33 34 34 32 30 30 31 34 35 34 32 31 30 29 27 26 25 24 23 22 21 21 21 21 20 20 19 19 18 19 19 20 20 21 21 22 22 23 23 23 23 23 23 24 25 27 29 29 27 24 23
35 35 34 33 32 31 31 30 30 30 30 30 30 31 32 33 34 34 35 35 36 36 36 36 36 36 36 36 36 36 36 34 32 31 31 31 33 34 33 31 30 31 33 34 34 32 31 31 30 28 27 26 25 23 22 21 21 20 20 19 18 17 17 17 17 18 18 19 20 20 21 22 22 22 22 22 22 22 23 23 25 27 29 29 26 23
36 37 37 36 35 34 33 32 32 31 31 31 32 33 34 35 35 35 35 34 34 33 34 34 34 34 34 34 34 34 34 33 31 30 30 30 31 33 33 31 30 30 32 33 33 32 31 31 31 30 29 27 25 24 22 21 20 19 18 17 16 16 15 15 15 16 17 18 18 19 19 20 21 21 22 22 22 22 22 22 24 26 28 29 28 25
35 36 37 38 37 37 35 34 33 32 32 32 32 33 35 35 34 33 31 30 28 28 28 29 30 31 31 31 32 32 32 30 30 29 29 29 30 32 33 31 29 29 30 31 32 31 31 31 31 31 30 28 26 24 22 20 19 17 16 16 15 15 14 14 15 15 16 17 17 18 18 19 19 20 21 21 22 22 21 21 22 24 26 29 29 27
35 35 36 36 37 37 36 35 33 32 31 31 31 31 31 32 32 31 30 28 27 26 26 27 28 29 29 30 30 31 31 30 29 28 28 28 29 32 33 32 30 29 29 30 31 31 31 31 31 31 30 28 26 24 22 20 18 17 16 15 15 15 15 15 15 15 15 16 16 17 17 17 18 19 20 20 21 21 21 21 21 22 24 27 30 30
37 37 37 37 37 37 36 34 32 30 29 28 28 27 27 28 28 29 29 28 27 27 28 29 29 29 29 30 31 32 32 31 30 29 28 28 30 32 33 32 30 29 28 28 28 29 30 31 31 31 30 28 26 24 22 19 18 17 17 16 16 15 15 15 15 15 15 15 15 15 16 16 17 17 18 19 20 20 20 20 19 20 22 25 28 30
38 39 39 40 39 38 36 33 31 28 27 27 26 26 26 26 27 28 28 27 26 26 27 28 30 31 31 31 31 31 31 31 30 28 27 28 31 32 32 31 30 29 27 26 25 26 29 31 31 30 28 27 25 23 22 20 19 19 19 18 17 16 15 15 14 14 14 14 14 14 15 15 16 16 17 18 19 19 19 19 18 19 21 23 26 29
37 38 39 40 40 38 35 31 28 27 27 28 28 28 28 28 28 28 28 26 25 25 27 29 30 32 32 31 28 27 27 28 27 26 26 28 30 31 31 29 29 28 27 25 23 22 23 25 26 26 26 25 25 25 24 23 22 21 20 19 18 17 16 15 14 14 13 13 13 13 13 14 14 15 16 17 17 18 18 18 17 18 19 21 24 26
36 36 36 37 37 35 31 28 27 27 29 29 30 29 28 26 26 25 25 25 25 26 27 29 30 31 31 32 30 29 28 28 26 25 25 27 29 30 30 29 28 28 27 26 25 24 22 22 23 24 24 25 26 26 26 25 24 23 22 21 20 18 16 15 14 13 13 12 12 12 12 13 14 14 15 16 16 17 17 17 16 16 18 20 22 23
32 32 32 33 32 31 29 28 28 28 28 27 26 25 24 23 23 23 23 25 26 27 29 29 30 30 31 32 33 34 33 32 30 28 27 27 28 29 29 29 28 28 27 27 27 27 27 26 26 26 26 26 27 28 28 27 26 24 23 22 20 19 17 15 14 13 13 12 12 12 12 12 13 14 14 15 15 16 16 16 15 15 17 19 21 22
24 25 26 26 26 26 26 27 26 25 24 22 20 20 19 20 21 23 24 26 28 29 28 28 28 29 31 33 34 34 34 34 32 30 30 30 30 30 29 29 29 28 28 27 27 28 29 30 30 29 28 29 29 29 29 28 26 25 23 22 21 19 18 16 15 14 13 12 12 12 12 12 13 13 14 14 14 14 15 15 15 15 15 17 19 21
19 19 20 20 20 20 20 20 19 19 18 17 17 18 20 23 25 27 28 29 28 28 26 25 25 28 32 33 34 34 34 34 32 30 31 31 31 31 30 30 29 28 27 27 27 27 28 29 30 30 29 29 29 29 29 28 26 25 24 22 21 20 19 17 16 15 14 13 13 12 13 13 13 14 14 13 13 12 12 13 14 14 14 16 18 20
24 22 22 21 21 21 21 21 21 21 22 23 24 25 26 27 28 28 28 28 27 26 24 23 24 26 29 30 32 34 35 34 32 31 31 32 32 31 31 30 29 28 27 28 28 28 28 28 29 29 28 28 28 28 28 27 26 25 24 23 22 21 20 19 18 17 16 15 14 13 13 13 14 14 14 13 12 11 10 11 12 13 13 15 17 19
31 30 29 29 29 29 29 30 30 30 30 30 30 29 27 26 26 26 26 26 26 25 25 23 23 24 26 28 31 34 35 35 34 33 33 33 33 32 30 29 29 28 28 28 28 28 28 28 28 28 27 27 26 26 26 26 25 25 24 24 23 21 20 19 18 17 16 16 15 14 13 14 14 15 15 14 12 10 10 10 12 14 14 14 16 18
31 31 30 30 30 29 29 29 29 29 29 28 27 26 24 23 24 25 25 25 24 23 22 22 23 24 26 28 30 33 34 35 36 36 35 35 34 33 31 29 28 28 28 28 28 28 28 28 27 26 26 27 27 26 26 25 25 25 25 24 23 22 21 20 19 18 17 16 15 14 13 13 14 14 15 14 13 11 9 9 11 14 15 13 13 16
28 28 28 27 26 26 26 26 26 26 26 26 25 25 24 24 24 23 23 24 24 25 26 27 27 28 30 32 33 33 33 33 35 36 38 37 36 33 29 28 27 28 29 29 29 28 28 28 28 27 26 26 26 27 26 26 25 25 25 24 24 23 22 21 19 18 17 16 15 14 13 13 13 14 14 14 13 12 9 8 10 13 15 13 12 12
27 27 27 26 26 25 25 25 24 24 24 25 26 26 27 28 28 28 27 27 27 27 28 28 29 30 32 32 32 31 30 30 32 35 38 38 36 31 26 24 25 26 28 29 30 29 29 29 29 29 28 27 27 26 26 26 25 25 24 24 23 23 23 21 20 19 17 16 15 14 14 13 13 13 14 14 13 12 10 9 9 11 14 14 12 10
27 28 28 28 27 26 24 24 23 23 23 24 24 25 26 27 28 29 29 27 26 24 24 24 25 26 27 27 27 26 26 26 28 31 34 36 33 28 23 22 22 24 27 29 29 30 29 29 29 30 30 30 29 28 28 27 26 25 24 23 23 24 23 22 21 20 18 16 15 14 13 13 13 13 13 13 13 12 11 9 8 9 12 14 13 11
28 28 29 28 27 26 25 24 23 22 22 22 23 23 24 24 25 25 26 25 24 23 22 21 22 22 23 24 23 22 21 21 23 26 30 32 30 26 22 21 21 23 25 28 29 30 29 29 29 29 30 30 29 29 29 28 27 26 24 24 24 24 23 23 22 20 18 16 15 14 13 13 13 12 13 13 13 12 11 10 8 8 9 11 12 12
28 28 28 28 27 26 25 24 24 23 23 22 22 22 22 23 23 24 24 25 25 24 23 22 21 21 22 22 22 21 20 20 21 24 27 29 28 25 22 22 22 23 25 28 29 29 29 29 29 29 29 28 28 29 29 28 27 26 25 25 24 23 22 23 22 20 18 16 15 13 13 13 13 13 13 13 12 12 11 10 9 8 8 10 10 10
27 27 27 26 25 24 24 25 25 25 24 24 24 24 23 23 23 23 23 23 23 22 21 20 20 21 22 22 21 21 20 20 21 23 25 26 25 24 23 23 23 24 26 28 28 28 27 28 28 28 28 28 28 29 28 28 27 26 26 25 25 24 24 23 22 20 19 17 15 14 13 13 13 13 13 12 12 11 11 10 9 8 8 8 8 7
26 26 25 25 24 24 24 25 25 25 25 25 25 25 25 24 24 23 22 21 20 19 19 18 20 22 23 22 20 19 19 19 19 20 21 21 22 22 23 24 24 25 26 27 27 26 26 27 27 27 27 27 28 28 28 28 27 26 26 26 25 25 25 24 23 21 20 18 16 15 13 13 14 14 13 13 11 11 11 10 10 9 8 8 8 6
24 25 25 24 24 24 25 25 25 25 25 25 25 26 25 24 23 22 21 20 19 19 18 19 21 24 24 22 20 19 19 19 19 19 19 20 20 21 23 24 24 25 26 26 25 24 23 24 24 25 26 26 27 28 28 28 27 27 26 26 25 25 25 24 23 22 21 19 17 16 14 14 14 15 14 13 12 11 10 10 10 9 8 7 7 7
24 25 25 25 25 24 24 24 24 24 24 25 25 25 24 23 22 22 21 20 19 18 19 20 21 22 22 20 19 19 20 20 20 20 20 21 21 22 23 24 24 25 24 24 22 21 20 19 20 21 23 25 26 27 27 27 26 26 25 25 25 25 25 25 24 22 21 19 18 16 15 15 15 15 15 14 13 12 11 10 10 10 9 8 7 7
24 24 25 24 24 24 24 23 23 23 24 24 24 24 23 22 21 21 21 20 19 19 19 20 21 22 22 22 21 21 21 21 20 20 20 21 22 22 23 24 24 24 23 21 20 18 17 16 16 17 20 22 24 25 25 25 25 25 25 25 25 25 25 25 24 22 21 20 18 17 16 16 16 16 15 14 14 13 12 10 10 10 9 9 7 7
24 24 24 23 23 23 23 24 24 24 24 24 24 23 22 22 21 21 21 21 20 19 20 21 22 23 23 23 24 24 23 22 21 20 20 21 22 23 24 24 24 23 22 20 18 16 15 15 15 15 16 18 21 23 24 24 24 24 24 24 24 24 25 24 23 22 21 20 18 17 16 16 16 16 15 15 15 14 13 11 10 10 10 9 8 7
23 23 23 23 23 23 24 24 24 24 24 24 24 24 24 23 22 22 21 20 19 19 20 21 22 22 23 24 24 23 22 20 19 19 20 21 22 23 24 24 23 22 20 18 17 17 17 17 17 17 16 16 18 20 21 22 23 23 23 24 24 24 24 24 23 22 21 20 19 18 17 16 16 16 16 16 16 15 14 13 11 11 10 10 9 8
23 23 23 23 24 24 24 24 24 24 24 24 24 24 24 23 22 21 20 20 19 20 21 21 22 22 22 22 22 20 19 18 18 19 20 20 22 23 24 24 22 20 19 18 17 18 18 19 20 20 20 19 18 18 19 20 21 21 22 22 22 22 22 23 22 21 20 20 19 18 17 17 16 16 16 17 17 16 15 14 12 11 10 10 10 10
Wind_Direction
278 280 281 281 282 282 282 282 282 283 284 284 285 286 286 286 286 285 284 282 279 278 276 276 275 274 273 271 271 271 271 272 273 274 274 274 274 274 275 276 277 279 280 281 282 283 283 284 284 283 282 282 281 280 280 280 280 280 279 278 276 276 275 274 273 273 272 271 271 270 270 270 269 269 267 266 266 266 266 265 263 262 260 259 258 257
279 280 281 281 281 281 281 281 281 281 282 283 284 284 285 285 285 285 284 283 282 281 280 279 279 278 277 276 274 273 271 270 270 271 271 272 273 274 275 276 277 278 280 281 282 283 284 285 285 284 283 282 281 281 281 281 280 280 280 279 278 277 276 275 274 273 273 272 272 271 271 270 269 268 267 265 264 264 263 263 262 261 260 259 259 258
281 281 281 282 281 281 280 281 281 281 281 282 283 283 283 284 284 284 285 285 285 285 285 285 285 285 284 284 282 279 276 274 272 272 272 272 273 273 274 275 276 277 279 281 283 284 285 285 285 284 283 282 282 281 281 281 281 280 280 280 279 279 278 277 276 275 274 273 272 272 272 271 270 269 268 266 265 263 262 261 260 260 260 260 260 260
280 281 281 282 281 280 280 281 282 282 282 282 282 282 282 283 283 284 285 286 286 287 287 288 288 288 288 288 287 286 284 282 280 278 276 275 274 274 274 274 275 277 278 280 282 283 284 284 284 283 283 282 282 281 281 281 280 280 280 280 280 279 279 278 277 276 275 274 273 273 272 272 271 270 269 268 266 264 262 261 261 260 260 261 262 262
278 279 280 281 281 281 280 281 281 281 281 281 281 282 282 282 283 284 285 286 286 287 288 288 288 287 287 288 289 289 289 288 287 284 282 279 277 275 274 274 275 276 278 279 280 282 282 282 282 282 282 281 281 281 280 280 280 279 279 279 279 279 279 278 277 276 275 275 274 273 272 271 271 271 270 269 268 267 264 262 261 260 260 261 262 264
277 277 278 279 279 279 280 281 281 280 280 281 281 282 282 283 283 284 285 286 287 287 287 287 287 287 286 287 288 290 291 291 289 287 285 282 279 277 275 274 275 276 277 278 278 279 280 280 281 281 280 280 280 280 279 279 279 279 278 278 278 279 279 278 277 276 275 274 273 272 272 271 271 270 270 269 269 268 266 263 261 259 258 258 260 263
277 277 278 278 278 278 279 280 280 280 280 281 282 282 283 283 284 284 285 286 287 288 287 287 287 287 287 288 290 292 293 293 291 289 287 284 282 279 277 276 275 275 276 277 277 278 279 279 280 280 280 280 279 279 279 278 278 278 278 279 279 279 280 279 278 277 276 274 272 271 270 270 270 270 269 269 269 268 267 265 263 260 257 255 256 258
277 278 278 277 277 278 279 279 280 280 279 280 280 282 283 284 285 285 286 287 287 287 286 286 287 287 288 290 292 293 294 293 292 291 289 287 286 284 282 280 279 278 278 278 278 279 279 280 280 280 281 281 280 280 280 279 279 279 279 280 280 280 281 280 279 278 277 274 272 270 269 269 269 269 269 269 268 267 267 266 265 262 258 254 253 254
276 277 278 278 277 277 278 279 280 280 279 278 278 279 281 283 285 285 285 285 284 284 284 284 285 286 289 291 293 294 293 293 292 291 290 290 289 289 289 288 287 285 284 283 282 282 282 283 283 283 282 282 282 282 281 280 280 280 281 281 282 282 281 281 280 279 278 276 273 271 269 268 267 267 267 267 267 266 266 267 266 263 259 254 252 253
276 276 277 278 278 277 276 277 280 282 281 279 279 280 280 281 282 283 284 283 283 283 282 282 282 285 288 291 292 292 292 292 291 291 290 290 291 291 292 291 291 290 289 288 287 286 285 284 284 283 283 282 282 281 281 280 281 281 282 283 284 284 284 283 282 280 279 277 275 273 270 268 266 265 265 265 265 265 265 266 267 265 260 255 253 254
275 276 276 277 278 278 277 277 280 283 283 282 281 282 282 281 280 280 280 281 283 284 283 282 282 283 285 287 289 290 290 290 290 291 291 291 292 292 292 291 290 290 289 288 287 286 285 284 284 283 283 282 281 281 281 281 282 283 285 287 289 289 288 287 286 284 282 280 278 276 273 270 268 266 265 264 263 263 264 265 266 265 261 257 255 256
274 275 275 275 277 277 277 278 280 281 281 281 280 280 281 282 281 279 277 278 280 283 283 283 283 282 282 283 285 286 286 285 286 288 289 291 291 291 291 290 290 290 289 289 287 286 286 286 286 285 285 284 283 283 283 284 285 287 289 291 292 292 291 289 287 286 284 283 281 278 276 273 271 268 266 264 262 262 262 263 265 264 262 258 256 257
273 273 273 274 275 275 275 275 277 278 278 277 276 276 278 281 282 279 277 278 280 282 283 283 283 283 282 281 281 281 282 282 283 285 286 287 288 289 290 290 289 289 289 288 288 287 287 287 287 287 286 285 285 285 285 286 288 290 291 292 293 292 291 288 286 285 284 283 282 281 278 276 273 271 268 265 262 261 260 262 263 263 262 260 258 258
270 271 271 271 272 272 272 273 274 275 275 276 276 276 278 280 280 279 277 278 281 283 284 283 282 283 283 282 281 281 281 281 283 283 284 285 287 288 288 288 288 289 288 288 287 287 287 287 287 287 287 286 286 287 288 289 290 291 292 293 293 292 290 287 285 283 283 283 284 283 281 279 277 274 270 266 263 261 260 261 262 262 262 260 259 258
268 268 268 268 268 269 271 273 274 275 277 278 279 280 281 281 280 279 278 279 282 284 285 283 283 283 284 283 283 283 282 282 282 282 283 285 287 289 288 287 287 288 288 287 287 288 288 288 288 288 288 289 289 290 291 292 293 293 294 294 294 293 291 288 285 283 283 283 284 284 283 282 280 277 274 270 266 262 260 260 260 261 261 261 260 259
268 268 266 267 268 270 272 274 275 276 279 282 283 282 281 281 282 281 280 280 282 283 282 280 280 281 283 284 285 284 283 282 281 281 282 285 288 290 288 286 286 287 288 288 288 289 290 290 290 290 291 291 293 294 294 295 295 296 296 297 296 295 292 289 286 284 283 282 282 283 283 283 281 279 277 274 270 265 261 258 257 258 260 260 260 259
273 271 270 271 272 275 277 278 278 279 281 284 285 284 283 283 283 283 282 281 281 279 277 276 275 276 280 283 285 285 283 281 281 281 281 283 287 290 289 286 285 286 289 290 290 291 292 291 291 292 292 293 294 295 296 296 297 297 298 299 298 297 293 290 286 283 281 280 281 281 282 281 280 279 278 276 273 268 263 258 255 255 257 259 259 257
283 281 280 278 279 281 283 283 283 284 285 285 286 286 286 286 285 284 282 281 278 276 275 275 273 273 275 278 282 284 283 280 278 278 278 280 285 289 290 287 286 287 289 291 291 292 292 292 292 293 293 294 295 295 296 296 297 299 300 300 299 297 294 290 287 283 280 279 279 279 279 278 278 278 277 275 273 269 265 259 255 254 256 258 258 256
287 287 286 284 285 287 288 286 286 286 286 285 286 286 286 286 286 285 283 281 278 276 274 274 273 273 273 275 279 283 283 277 274 274 274 277 282 287 288 287 286 287 288 290 292 293 293 293 293 293 294 294 295 295 295 296 298 299 300 300 299 296 293 290 287 284 281 279 278 277 277 277 277 277 275 274 271 269 266 261 257 256 257 259 259 257
283 283 284 285 286 287 287 287 288 288 287 288 288 288 286 287 287 285 284 282 280 279 278 275 274 274 275 277 281 284 283 279 274 272 273 276 281 285 286 285 284 285 287 289 291 292 292 293 294 294 295 295 295 295 295 296 297 299 300 300 299 296 294 292 288 284 281 280 279 278 277 278 278 278 277 275 272 268 264 260 256 255 256 259 260 258
281 280 279 280 281 281 282 285 288 290 290 291 289 287 286 286 285 285 284 283 282 281 280 276 276 277 279 281 283 285 284 280 275 274 275 277 280 282 284 283 283 283 285 288 291 293 293 293 295 295 296 296 296 296 296 297 298 299 300 300 299 297 295 292 290 286 283 281 280 279 278 278 279 279 279 278 275 270 265 258 253 250 251 255 258 257
280 278 278 278 279 279 281 285 289 291 292 290 287 285 285 284 284 284 284 284 283 281 280 279 280 282 284 284 286 287 285 280 277 275 275 275 276 279 282 281 281 281 283 287 291 294 294 295 296 297 297 297 297 297 298 298 299 299 300 300 299 297 294 292 290 287 285 283 281 280 279 278 278 278 279 280 278 275 269 261 253 247 245 249 254 256
280 279 279 279 279 280 282 285 288 290 290 288 287 286 286 286 285 285 285 284 283 282 282 283 285 286 285 285 285 285 283 280 278 275 272 269 272 276 279 278 277 278 281 287 291 294 295 296 296 297 298 298 298 299 299 300 300 300 300 300 298 295 292 291 290 289 287 285 283 282 280 278 277 277 278 279 279 279 275 267 257 248 243 244 248 253
282 281 280 279 279 280 282 284 286 287 288 288 288 289 289 289 289 288 287 286 284 282 282 282 281 280 279 280 280 280 280 278 276 272 269 267 270 274 277 275 273 274 279 286 290 292 293 295 296 297 297 298 299 300 301 302 301 301 300 298 296 293 290 289 289 288 288 287 286 284 282 279 277 276 276 276 278 278 277 272 262 251 243 241 243 249
285 283 282 281 281 282 282 283 284 287 289 290 291 291 291 290 289 288 287 284 281 279 277 275 272 271 273 274 274 275 277 277 274 270 267 266 268 273 275 274 271 272 277 284 288 289 290 292 294 296 296 297 298 300 302 303 303 302 300 297 294 290 289 288 289 289 289 289 287 286 284 282 279 277 275 275 276 277 277 274 267 256 245 240 240 245
284 283 283 283 283 282 283 283 285 286 288 290 290 289 288 287 285 282 280 278 276 275 273 269 268 268 270 271 270 271 273 274 272 269 267 266 268 271 275 274 271 271 275 281 284 285 286 288 292 294 294 295 298 301 302 303 303 303 300 297 293 289 288 289 290 291 291 291 290 288 286 284 281 279 277 275 275 275 276 275 270 260 249 241 239 242
288 285 283 281 280 279 278 279 280 282 283 284 284 283 282 281 280 279 277 278 281 282 279 274 271 272 272 270 269 270 271 271 269 268 267 267 268 270 274 274 272 271 273 277 280 282 282 284 287 290 292 294 297 300 302 304 304 303 301 298 295 292 290 291 293 294 294 293 292 290 288 285 283 280 279 277 275 274 274 274 272 265 254 245 241 242
299 296 292 286 280 276 272 272 273 275 277 278 278 279 279 279 279 281 283 286 291 293 292 287 282 278 276 273 273 273 272 269 267 265 265 265 264 266 272 274 273 270 271 274 277 279 280 281 284 287 290 293 296 299 301 303 304 304 303 302 300 297 295 295 295 296 297 296 294 292 290 287 285 282 280 277 275 272 272 272 272 269 260 251 245 243
303 303 301 295 287 278 272 269 269 272 275 277 278 278 278 278 278 279 282 285 289 291 291 291 288 284 281 279 279 277 274 270 267 265 263 261 261 265 272 273 271 269 268 270 273 276 277 279 282 286 289 292 294 297 299 301 303 304 304 304 303 302 299 298 297 297 297 297 296 295 293 291 288 285 282 278 274 271 268 268 270 269 265 256 249 245
302 303 302 298 292 284 277 272 270 272 276 279 280 280 278 276 276 277 279 281 284 285 286 287 286 286 284 282 280 277 273 271 269 266 261 257 258 263 269 269 268 267 266 265 267 271 274 279 282 285 288 291 293 295 297 300 301 303 305 305 305 304 303 301 299 298 296 296 296 296 296 295 293 290 286 281 275 270 265 264 265 266 266 260 253 248
301 301 300 298 294 288 282 276 273 274 278 282 284 283 282 279 278 279 280 281 283 284 285 286 286 285 283 279 274 271 271 272 271 267 261 256 258 262 266 265 264 265 264 261 259 263 271 277 281 284 287 289 291 293 295 297 299 301 303 304 305 306 306 305 302 299 297 297 297 299 299 299 298 295 291 286 279 272 265 260 259 261 263 261 256 250
299 299 299 298 294 289 282 277 275 277 282 285 287 287 285 283 281 280 280 282 285 287 288 287 285 283 280 275 270 268 269 272 273 269 262 258 258 262 264 263 263 263 263 260 257 257 263 269 276 280 282 284 287 289 292 294 296 298 300 301 304 306 308 308 305 301 299 300 301 302 304 304 303 301 298 292 284 275 265 257 254 256 260 260 256 250
298 300 301 300 296 289 281 276 276 280 284 287 288 288 287 286 284 283 284 286 289 291 292 290 286 281 278 274 271 269 271 273 273 271 265 260 258 260 262 262 262 262 262 260 258 257 259 263 268 274 276 278 280 283 286 289 291 293 295 297 300 304 309 310 308 305 303 304 306 307 309 310 309 308 304 298 289 278 266 254 248 250 256 258 254 249
303 305 305 303 297 289 282 279 280 283 286 287 287 287 288 290 290 290 289 290 292 294 293 290 286 281 277 273 271 270 272 275 276 273 267 261 258 258 260 260 261 261 260 258 257 257 258 262 265 268 271 275 277 279 282 285 287 290 291 293 296 301 307 310 310 308 307 307 309 312 315 316 316 314 310 304 296 284 268 253 242 242 250 254 252 248
312 313 311 307 302 296 290 287 287 289 289 288 288 290 292 294 295 294 294 295 294 293 291 287 285 282 278 274 271 272 274 279 280 276 269 262 259 259 259 260 260 260 258 257 256 256 257 260 263 266 268 271 274 277 280 283 285 287 288 290 294 299 305 309 311 310 310 310 312 316 320 322 321 320 317 312 305 293 276 256 241 236 242 248 249 246
310 309 308 307 305 303 301 300 298 297 296 295 295 296 298 299 299 300 299 297 295 291 287 284 282 282 281 279 277 277 279 282 283 279 272 266 263 261 259 260 262 262 260 258 257 256 257 260 263 265 266 267 270 275 279 283 285 287 288 290 293 298 303 307 309 309 309 311 313 318 322 324 325 324 322 319 314 304 286 261 241 232 236 242 244 243
307 307 306 306 305 304 303 302 301 300 299 299 300 301 302 302 302 301 299 296 292 286 282 281 281 283 284 284 283 282 284 285 283 279 274 270 267 265 263 265 268 268 264 260 258 258 258 259 262 263 263 264 266 270 275 280 283 285 286 290 293 296 300 303 305 306 307 308 311 316 320 323 325 325 324 322 318 309 290 262 240 232 234 238 239 238
310 310 310 310 310 310 309 308 307 305 304 302 300 299 298 298 298 298 296 294 290 286 284 285 286 285 284 283 283 284 285 284 280 276 273 270 268 267 267 271 273 272 269 265 262 259 258 257 257 258 260 263 266 269 272 276 278 280 284 289 292 294 296 299 301 303 304 306 309 312 317 320 323 324 324 322 319 313 298 270 245 236 238 242 238 233
312 313 313 314 314 314 314 314 314 312 309 305 300 295 291 290 290 291 292 292 291 291 291 291 290 287 284 282 282 283 282 280 276 272 268 266 265 265 268 273 275 274 272 270 266 262 258 256 255 255 257 261 265 268 272 274 275 278 283 286 288 289 292 295 298 301 302 304 305 308 312 317 320 322 323 322 321 318 310 289 260 246 245 250 247 235
313 313 313 313 313 313 314 314 315 315 313 308 303 297 292 288 286 285 285 287 289 290 291 290 288 285 283 282 282 281 280 278 274 269 265 262 261 262 266 270 273 274 273 271 268 264 261 257 257 259 260 260 263 266 269 271 274 277 280 281 283 285 289 293 295 297 299 300 301 303 307 312 317 320 322 322 321 319 315 303 279 258 251 255 259 255
313 313 312 311 311 310 310 310 312 313 313 312 309 305 300 296 292 289 287 287 287 289 290 290 289 288 287 286 284 281 278 276 273 269 264 260 259 260 264 267 270 272 272 270 268 266 264 260 259 260 261 262 263 265 267 269 272 274 276 277 279 283 287 289 291 292 294 295 298 300 304 309 313 317 320 321 320 319 315 307 292 272 257 255 259 264
312 312 311 310 310 308 307 306 307 309 311 313 313 312 310 307 303 298 294 292 290 291 293 296 297 297 296 294 290 286 281 278 275 272 267 262 259 258 261 266 269 271 271 270 268 267 265 263 262 261 261 262 262 263 265 268 270 271 272 274 277 281 284 285 287 289 291 293 296 300 302 305 309 313 317 318 318 316 315 309 298 282 268 260 258 259
310 310 310 310 309 308 307 306 306 307 308 310 312 313 315 315 312 309 304 299 296 294 293 295 297 299 299 297 295 292 289 285 282 277 271 264 259 258 262 267 271 273 272 269 267 266 266 265 263 262 262 262 262 262 263 265 268 269 270 272 274 276 277 279 283 287 290 293 296 299 301 304 307 310 312 313 313 314 313 310 303 289 271 259 257 261
310 310 310 310 310 309 310 311 311 309 308 308 309 311 314 316 316 315 312 307 302 298 295 294 295 296 295 293 293 293 292 288 283 278 272 267 263 263 266 270 272 273 272 269 265 264 264 263 262 262 262 262 261 261 262 263 265 267 269 272 273 273 273 275 280 284 288 291 294 297 300 304 306 307 306 307 309 310 311 310 306 296 277 258 255 265
313 313 313 313 313 315 317 317 315 312 310 308 307 309 311 313 315 315 314 311 307 302 298 298 296 293 288 287 290 293 292 288 283 278 274 270 268 268 269 271 272 273 271 268 266 265 264 262 262 262 263 262 261 260 261 262 264 266 269 272 274 274 276 277 279 280 282 286 290 294 299 302 302 301 299 301 304 307 307 308 306 301 289 267 254 257
317 317 317 317 317 318 318 317 315 313 310 307 307 307 309 311 312 312 311 309 307 306 306 306 300 292 283 282 286 291 292 289 286 283 280 277 275 274 273 274 274 273 271 269 267 267 266 265 264 264 263 261 260 260 261 262 263 265 268 271 273 275 276 277 277 278 280 282 285 289 294 296 295 293 293 297 300 302 302 302 301 300 296 279 259 248
319 318 317 317 316 315 315 314 313 311 308 307 306 306 308 310 310 309 307 306 305 306 307 307 302 295 290 289 289 288 287 286 285 285 285 284 283 282 279 277 276 274 271 269 269 269 268 267 265 264 262 259 258 258 261 262 263 264 267 270 272 273 274 275 276 277 278 279 281 284 287 287 287 287 289 293 296 297 296 295 295 295 292 284 267 249
317 315 314 314 313 312 312 313 313 311 310 309 309 309 310 312 311 309 306 303 302 301 302 302 300 297 296 295 292 287 282 280 281 283 285 286 285 284 282 279 275 273 271 270 271 271 271 268 265 262 261 259 259 259 260 262 264 266 268 270 271 272 272 274 275 276 277 277 278 279 280 280 281 283 286 288 289 290 291 288 287 286 285 283 273 255
315 314 314 314 314 313 314 315 316 315 314 314 314 315 316 316 314 311 308 305 302 299 298 298 297 297 297 297 294 288 282 278 277 280 283 284 284 282 279 275 272 269 269 270 272 273 273 271 267 263 260 259 260 261 261 263 264 266 268 268 268 269 270 272 273 274 274 275 275 275 275 276 278 280 282 282 282 284 285 284 280 277 276 277 273 262
317 317 318 318 317 316 317 318 318 318 318 318 318 318 318 317 315 313 311 308 304 299 295 294 294 293 292 293 292 290 287 283 281 282 284 283 281 278 273 269 266 265 266 268 270 269 268 268 267 266 263 259 258 259 259 261 262 263 263 264 264 265 266 268 270 271 271 271 272 271 271 272 273 275 276 275 276 278 280 279 275 269 265 266 268 265
319 321 321 320 319 318 317 318 318 318 318 318 317 316 314 312 311 309 308 305 302 298 296 295 294 293 290 289 289 289 289 288 286 285 284 283 279 274 268 264 262 262 262 262 260 258 256 255 257 260 262 262 260 257 256 257 258 258 259 260 261 262 263 265 267 268 269 269 268 268 268 268 268 269 269 269 271 272 273 273 270 263 256 256 259 262
Height
1426 1426 1426 1427 1426 1425 1423 1423 1424 1423 1421 1421 1421 1421 1420 1419 1419 1419 1418 1418 1418 1417 1417 1416 1415 1415 1414 1414 1414 1414 1413 1413 1412 1412 1412 1411 1411 1410 1410 1410 1409 1409 1408 1408 1408 1407 1407 1406 1406 1405 1405 1404 1404 1403 1403 1403 1402 1402 1402 1401 1401 1400 1400 1399 1399 1398 1398 1398 1398 1397 1397 1397 1397 1397 1397 1397 1397 1398 1398 1398 1398 1399 1399 1399 1400 1400
1424 1424 1423 1424 1424 1423 1420 1420 1421 1421 1419 1418 1418 1418 1418 1417 1416 1416 1415 1415 1414 1414 1413 1413 1412 1412 1412 1411 1411 1411 1410 1410 1410 1409 1409 1408 1408 1408 1407 1407 1407 1406 1406 1405 1405 1404 1404 1403 1403 1403 1402 1402 1401 1401 1400 1400 1399 1399 1398 1398 1398 1397 1397 1396 1396 1396 1395 1395 1395 1394 1394 1394 1394 1394 1394 1394 1394 1394 1394 1394 1395 1395 1396 1396 1396 1397
1422 1422 1421 1421 1421 1420 1418 1418 1418 1418 1418 1416 1416 1415 1415 1414 1413 1413 1412 1412 1411 1411 1410 1410 1409 1409 1408 1408 1408 1408 1408 1407 1407 1407 1406 1406 1406 1405 1405 1404 1404 1403 1403 1402 1402 1402 1401 1401 1400 1400 1399 1399 1398 1398 1398 1397 1397 1396 1396 1395 1395 1394 1394 1394 1393 1393 1392 1392 1392 1391 1391 1391 1391 1391 1391 1391 1390 1390 1390 1390 1391 1391 1392 1393 1393 1393
1421 1419 1418 1418 1418 1417 1416 1415 1415 1415 1415 1414 1413 1413 1412 1411 1410 1409 1409 1409 1408 1408 1407 1407 1407 1406 1405 1405 1404 1404 1404 1404 1404 1404 1403 1403 1403 1403 1402 1402 1401 1401 1400 1400 1399 1399 1398 1398 1398 1397 1397 1397 1396 1396 1395 1395 1394 1394 1393 1393 1392 1392 1391 1391 1390 1390 1389 1389 1388 1388 1388 1388 1388 1388 1388 1388 1388 1387 1387 1387 1387 1388 1388 1389 1389 1390
1418 1418 1417 1417 1416 1414 1413 1413 1413 1413 1412 1411 1410 1409 1409 1408 1408 1407 1406 1406 1406 1405 1404 1404 1403 1403 1402 1402 1401 1401 1401 1401 1401 1401 1400 1400 1400 1399 1399 1399 1398 1398 1398 1397 1397 1396 1396 1396 1395 1395 1394 1394 1393 1393 1393 1392 1392 1391 1391 1390 1390 1389 1389 1388 1388 1387 1387 1386 1386 1385 1385 1385 1385 1385 1385 1384 1384 1384 1384 1384 1384 1384 1385 1385 1386 1387
1416 1416 1415 1414 1413 1412 1411 1410 1410 1410 1409 1408 1407 1406 1406 1405 1405 1404 1403 1403 1403 1402 1402 1401 1401 1400 1400 1399 1398 1398 1398 1398 1398 1397 1397 1397 1397 1397 1396 1396 1396 1395 1395 1395 1394 1394 1393 1393 1393 1392 1392 1391 1391 1390 1390 1389 1389 1388 1388 1388 1387 1386 1386 1385 1385 1384 1384 1383 1383 1383 1382 1382 1382 1382 1382 1381 1382 1382 1382 1382 1382 1382 1382 1382 1382 1383
1413 1413 1413 1412 1410 1409 1408 1407 1407 1408 1407 1405 1404 1403 1403 1402 1402 1401 1401 1400 1400 1399 1398 1398 1398 1397 1397 1396 1396 1396 1395 1395 1395 1394 1394 1394 1394 1393 1393 1393 1393 1393 1393 1392 1392 1391 1391 1390 1390 1389 1389 1388 1388 1388 1387 1387 1386 1386 1385 1385 1384 1383 1383 1382 1382 1381 1381 1380 1380 1380 1379 1379 1379 1378 1378 1378 1378 1378 1379 1379 1379 1379 1379 1379 1379 1380
1410 1409 1410 1409 1408 1406 1405 1404 1404 1405 1404 1403 1402 1401 1400 1399 1399 1398 1398 1397 1397 1396 1395 1395 1394 1394 1393 1393 1393 1393 1393 1392 1392 1391 1391 1391 1391 1390 1390 1390 1390 1390 1389 1389 1389 1388 1388 1388 1387 1387 1386 1385 1385 1384 1384 1384 1383 1383 1383 1382 1381 1381 1380 1379 1379 1378 1378 1377 1377 1377 1376 1376 1376 1376 1375 1376 1376 1375 1376 1376 1376 1376 1377 1377 1377 1377
1408 1407 1406 1406 1406 1404 1403 1402 1401 1402 1402 1402 1400 1399 1398 1397 1396 1396 1395 1394 1394 1393 1393 1392 1391 1390 1390 1390 1391 1390 1390 1390 1389 1388 1388 1388 1388 1387 1387 1387 1387 1386 1386 1386 1385 1385 1385 1384 1384 1383 1383 1383 1382 1382 1382 1381 1381 1380 1380 1379 1378 1378 1377 1377 1376 1375 1374 1374 1373 1373 1373 1373 1373 1373 1373 1373 1373 1373 1373 1373 1373 1374 1374 1374 1374 1375
1406 1405 1404 1403 1403 1403 1401 1399 1398 1399 1400 1399 1398 1397 1397 1395 1394 1393 1392 1392 1391 1391 1391 1390 1389 1388 1387 1387 1388 1388 1388 1387 1387 1386 1386 1385 1385 1385 1384 1384 1384 1383 1383 1383 1382 1382 1382 1381 1381 1381 1380 1380 1380 1379 1379 1379 1378 1378 1377 1376 1376 1375 1374 1373 1373 1372 1371 1371 1370 1370 1370 1369 1369 1369 1369 1369 1369 1370 1370 1371 1371 1371 1371 1372 1372 1373
1403 1403 1402 1400 1400 1399 1399 1397 1396 1396 1397 1397 1396 1395 1394 1393 1392 1391 1390 1388 1388 1388 1388 1387 1386 1386 1385 1384 1384 1385 1384 1384 1383 1383 1383 1383 1383 1383 1382 1382 1381 1381 1380 1380 1380 1379 1379 1378 1378 1378 1378 1378 1377 1377 1377 1376 1375 1375 1374 1373 1373 1372 1371 1371 1370 1369 1368 1368 1367 1367 1367 1366 1366 1366 1366 1366 1366 1367 1367 1368 1368 1368 1369 1369 1370 1370
1400 1399 1399 1398 1397 1396 1396 1395 1394 1394 1394 1394 1393 1392 1390 1390 1390 1389 1388 1386 1385 1385 1385 1384 1383 1383 1383 1382 1382 1382 1381 1381 1380 1380 1380 1380 1380 1380 1379 1379 1378 1378 1378 1377 1377 1377 1376 1376 1376 1375 1375 1375 1374 1374 1374 1373 1373 1372 1372 1371 1370 1369 1369 1368 1367 1366 1365 1365 1364 1364 1363 1363 1363 1363 1363 1363 1363 1364 1364 1365 1366 1366 1367 1367 1368 1368
1398 1397 1396 1395 1394 1393 1393 1393 1393 1393 1392 1392 1391 1389 1388 1387 1387 1387 1386 1383 1382 1382 1382 1382 1381 1380 1380 1380 1380 1379 1379 1378 1377 1377 1377 1377 1377 1377 1377 1376 1376 1375 1375 1374 1374 1373 1373 1373 1373 1373 1373 1372 1372 1372 1371 1371 1370 1370 1369 1368 1368 1367 1366 1365 1364 1363 1363 1362 1362 1361 1361 1361 1360 1360 1360 1360 1361 1361 1362 1362 1363 1364 1364 1365 1365 1366
1394 1394 1393 1392 1391 1391 1391 1391 1390 1390 1390 1389 1388 1388 1386 1386 1385 1385 1383 1381 1380 1380 1380 1379 1378 1377 1377 1377 1377 1377 1377 1376 1375 1374 1374 1374 1374 1374 1374 1373 1373 1373 1373 1372 1371 1371 1371 1371 1370 1370 1370 1370 1369 1369 1369 1368 1368 1367 1367 1366 1365 1364 1363 1363 1362 1361 1360 1360 1359 1359 1358 1358 1358 1358 1358 1358 1358 1358 1359 1359 1360 1361 1362 1363 1363 1363
1392 1392 1391 1390 1389 1389 1389 1389 1388 1387 1386 1386 1386 1385 1384 1383 1383 1383 1382 1379 1378 1378 1378 1377 1375 1374 1373 1373 1374 1374 1374 1373 1373 1372 1371 1371 1371 1372 1372 1371 1370 1370 1370 1369 1368 1368 1368 1368 1368 1368 1367 1367 1367 1367 1366 1366 1365 1365 1364 1363 1362 1362 1361 1360 1359 1358 1358 1358 1357 1357 1356 1356 1356 1355 1355 1355 1355 1355 1356 1357 1358 1358 1359 1360 1361 1361
1390 1390 1389 1388 1387 1387 1387 1387 1386 1384 1383 1383 1383 1383 1382 1381 1380 1380 1379 1378 1377 1376 1376 1374 1373 1371 1370 1370 1371 1371 1371 1371 1370 1369 1368 1368 1368 1369 1369 1369 1368 1367 1367 1367 1366 1365 1366 1366 1365 1365 1365 1365 1364 1364 1364 1363 1363 1362 1361 1360 1360 1359 1358 1358 1357 1356 1356 1355 1355 1355 1354 1354 1353 1353 1353 1353 1353 1353 1353 1354 1355 1356 1357 1358 1358 1359
1388 1388 1387 1386 1385 1384 1384 1384 1383 1383 1382 1381 1381 1380 1380 1379 1378 1378 1377 1376 1375 1374 1373 1373 1372 1370 1368 1367 1368 1368 1369 1368 1367 1366 1366 1365 1365 1366 1367 1367 1366 1365 1364 1364 1363 1363 1363 1363 1363 1363 1362 1362 1362 1362 1361 1361 1360 1359 1359 1358 1357 1356 1356 1355 1354 1354 1354 1353 1353 1353 1352 1352 1352 1351 1351 1351 1351 1351 1351 1351 1352 1353 1354 1355 1356 1357
1386 1385 1385 1384 1383 1382 1382 1382 1381 1381 1380 1379 1378 1378 1377 1376 1376 1375 1374 1374 1373 1372 1371 1371 1370 1368 1367 1366 1366 1367 1367 1366 1365 1364 1363 1362 1362 1363 1364 1364 1363 1363 1362 1361 1361 1361 1361 1361 1360 1360 1360 1360 1359 1359 1359 1358 1358 1357 1356 1356 1355 1354 1353 1353 1352 1352 1352 1351 1351 1350 1350 1350 1349 1349 1348 1348 1348 1348 1348 1349 1350 1350 1351 1352 1353 1353
1384 1383 1383 1382 1380 1380 1379 1379 1379 1379 1378 1378 1377 1376 1375 1374 1373 1373 1372 1371 1371 1370 1369 1368 1367 1366 1366 1364 1364 1365 1366 1365 1364 1363 1362 1360 1360 1361 1362 1362 1361 1360 1360 1359 1358 1358 1358 1358 1358 1358 1358 1357 1357 1357 1356 1356 1355 1355 1354 1353 1353 1352 1351 1351 1350 1350 1349 1349 1348 1348 1348 1348 1347 1347 1347 1346 1346 1346 1346 1347 1348 1348 1349 1349 1350 1351
1383 1382 1381 1380 1379 1378 1377 1377 1376 1376 1376 1375 1375 1374 1373 1372 1371 1371 1370 1369 1368 1368 1367 1366 1365 1364 1363 1362 1362 1363 1364 1363 1362 1361 1360 1359 1358 1358 1359 1359 1359 1358 1357 1356 1356 1356 1356 1356 1356 1355 1355 1355 1355 1354 1354 1353 1353 1353 1352 1351 1351 1350 1349 1348 1348 1348 1347 1347 1346 1346 1346 1345 1345 1345 1344 1344 1344 1343 1344 1344 1345 1346 1347 1347 1348 1348
1381 1380 1379 1379 1378 1377 1375 1374 1374 1374 1373 1373 1373 1372 1370 1370 1369 1368 1367 1367 1366 1365 1364 1364 1362 1361 1361 1361 1360 1361 1362 1362 1361 1359 1358 1357 1356 1356 1357 1357 1356 1355 1354 1353 1353 1354 1354 1354 1353 1353 1353 1353 1352 1352 1352 1351 1351 1350 1350 1349 1348 1348 1347 1347 1346 1346 1345 1345 1344 1344 1344 1343 1343 1343 1343 1342 1342 1342 1341 1342 1342 1343 1344 1345 1346 1346
1378 1377 1376 1376 1376 1375 1373 1372 1372 1372 1371 1371 1370 1369 1368 1367 1366 1365 1364 1364 1363 1363 1362 1360 1359 1359 1359 1359 1358 1358 1359 1359 1359 1358 1357 1355 1353 1353 1354 1354 1354 1353 1352 1351 1351 1351 1352 1351 1351 1350 1350 1350 1350 1350 1349 1349 1349 1348 1348 1347 1346 1346 1345 1345 1344 1344 1343 1343 1343 1342 1342 1342 1341 1341 1341 1340 1340 1339 1339 1339 1340 1340 1341 1342 1343 1344
1376 1374 1373 1373 1373 1372 1371 1370 1369 1369 1369 1368 1368 1366 1365 1364 1363 1363 1362 1361 1360 1359 1358 1358 1357 1357 1357 1356 1356 1356 1356 1357 1357 1356 1355 1353 1351 1350 1352 1352 1352 1350 1348 1348 1348 1349 1349 1349 1348 1348 1348 1348 1348 1348 1347 1347 1347 1346 1346 1345 1344 1344 1343 1343 1342 1342 1342 1341 1341 1340 1340 1339 1339 1339 1339 1338 1338 1338 1338 1337 1338 1338 1339 1340 1341 1342
1373 1372 1371 1370 1370 1369 1368 1368 1367 1367 1366 1366 1364 1363 1362 1362 1361 1360 1359 1358 1357 1357 1356 1355 1354 1354 1353 1353 1353 1352 1353 1353 1354 1354 1353 1351 1349 1348 1349 1350 1349 1348 1346 1346 1346 1347 1346 1346 1345 1345 1345 1345 1345 1345 1345 1345 1345 1344 1343 1343 1343 1342 1342 1341 1341 1340 1340 1339 1339 1338 1338 1338 1337 1337 1337 1336 1336 1336 1336 1335 1335 1336 1337 1338 1338 1339
1370 1369 1368 1367 1367 1366 1366 1365 1364 1364 1363 1362 1361 1360 1359 1358 1357 1356 1356 1355 1355 1354 1353 1353 1352 1351 1350 1350 1350 1349 1349 1350 1351 1351 1350 1349 1347 1346 1347 1348 1347 1346 1344 1343 1344 1344 1344 1343 1343 1343 1343 1343 1343 1343 1343 1343 1343 1342 1342 1341 1341 1340 1340 1339 1339 1338 1338 1338 1337 1337 1336 1336 1335 1335 1335 1334 1334 1334 1334 1333 1333 1334 1334 1335 1336 1337
1367 1366 1365 1364 1364 1363 1363 1362 1362 1361 1361 1360 1359 1358 1357 1356 1355 1353 1353 1353 1352 1352 1352 1351 1350 1349 1349 1349 1348 1347 1347 1348 1348 1348 1348 1347 1345 1344 1344 1345 1345 1344 1342 1342 1342 1342 1342 1341 1340 1340 1340 1340 1341 1341 1341 1341 1341 1340 1340 1339 1339 1338 1338 1338 1337 1337 1336 1336 1335 1335 1334 1334 1333 1333 1333 1333 1332 1332 1332 1332 1332 1332 1332 1333 1334 1334
1365 1364 1363 1362 1361 1361 1360 1360 1359 1359 1359 1358 1358 1357 1356 1355 1354 1352 1351 1350 1350 1351 1350 1349 1348 1348 1348 1347 1346 1345 1345 1345 1345 1345 1344 1344 1343 1342 1341 1342 1343 1342 1341 1340 1340 1340 1340 1339 1338 1338 1338 1338 1338 1339 1339 1339 1339 1338 1338 1338 1337 1337 1336 1336 1336 1335 1335 1334 1333 1333 1333 1332 1332 1331 1331 1331 1330 1330 1330 1330 1330 1330 1330 1331 1331 1332
1362 1361 1360 1359 1359 1358 1358 1358 1358 1357 1357 1357 1356 1356 1355 1354 1353 1351 1350 1349 1349 1349 1348 1348 1347 1347 1346 1345 1344 1344 1344 1343 1343 1342 1342 1342 1341 1339 1338 1339 1340 1340 1339 1338 1338 1338 1337 1337 1336 1336 1336 1336 1336 1337 1337 1337 1337 1337 1336 1336 1336 1335 1335 1334 1334 1333 1333 1333 1332 1331 1331 1330 1330 1329 1329 1329 1328 1328 1328 1328 1328 1328 1328 1329 1329 1329
1357 1357 1356 1356 1355 1355 1354 1354 1354 1354 1354 1354 1354 1353 1353 1353 1351 1350 1348 1348 1348 1348 1347 1346 1346 1345 1344 1343 1342 1342 1341 1341 1340 1340 1340 1340 1338 1336 1335 1337 1338 1338 1338 1337 1336 1335 1334 1334 1333 1334 1334 1334 1334 1335 1335 1335 1335 1335 1334 1334 1334 1334 1333 1333 1332 1332 1331 1331 1330 1330 1329 1328 1328 1328 1327 1327 1327 1326 1326 1326 1327 1327 1327 1327 1327 1327
1353 1353 1352 1352 1351 1351 1351 1350 1351 1351 1351 1351 1351 1351 1351 1350 1349 1348 1347 1347 1347 1346 1345 1344 1343 1343 1342 1341 1340 1339 1337 1337 1338 1338 1338 1337 1335 1333 1334 1335 1335 1335 1336 1336 1335 1333 1332 1331 1331 1332 1332 1332 1332 1333 1333 1333 1333 1333 1333 1333 1332 1332 1332 1331 1331 1330 1330 1329 1329 1328 1328 1327 1327 1326 1325 1325 1324 1324 1324 1324 1325 1325 1325 1324 1325 1325
1351 1350 1349 1349 1348 1348 1348 1347 1348 1348 1348 1348 1347 1347 1347 1347 1346 1345 1344 1344 1344 1344 1343 1342 1341 1340 1339 1339 1338 1336 1334 1334 1335 1336 1336 1334 1332 1331 1332 1333 1333 1333 1333 1334 1333 1332 1330 1329 1329 1329 1330 1330 1330 1330 1331 1331 1331 1331 1331 1331 1330 1330 1330 1330 1329 1328 1328 1328 1327 1327 1326 1326 1325 1324 1324 1323 1323 1323 1322 1323 1323 1323 1323 1323 1323 1323
1349 1348 1348 1347 1346 1345 1345 1345 1344 1344 1344 1344 1343 1343 1343 1343 1343 1342 1342 1341 1341 1341 1340 1340 1338 1338 1337 1337 1335 1333 1332 1332 1333 1334 1333 1332 1330 1329 1330 1331 1331 1331 1331 1332 1332 1331 1329 1328 1328 1328 1328 1328 1328 1328 1328 1329 1329 1329 1329 1329 1328 1328 1328 1328 1328 1327 1327 1326 1326 1325 1325 1324 1323 1323 1322 1322 1321 1321 1320 1321 1321 1322 1322 1322 1322 1322
1347 1346 1345 1344 1343 1343 1343 1342 1342 1342 1341 1341 1340 1340 1340 1340 1339 1339 1339 1338 1338 1338 1338 1337 1336 1335 1334 1333 1332 1330 1329 1330 1331 1332 1331 1330 1328 1327 1328 1328 1328 1328 1329 1329 1329 1328 1328 1327 1326 1326 1327 1327 1326 1326 1327 1327 1327 1327 1327 1327 1327 1327 1327 1327 1326 1326 1325 1325 1324 1324 1323 1323 1322 1322 1321 1320 1319 1319 1319 1319 1320 1320 1321 1321 1320 1320
1345 1344 1343 1343 1342 1342 1341 1341 1341 1340 1340 1339 1338 1338 1338 1337 1337 1337 1336 1336 1335 1335 1334 1334 1333 1332 1331 1330 1329 1328 1327 1327 1328 1329 1329 1328 1326 1325 1326 1326 1326 1326 1327 1327 1327 1326 1326 1325 1324 1325 1325 1324 1324 1325 1325 1325 1325 1326 1326 1325 1325 1325 1325 1325 1325 1324 1323 1323 1323 1322 1322 1321 1321 1320 1319 1319 1318 1318 1317 1318 1318 1319 1320 1320 1320 1320
1343 1343 1343 1342 1342 1341 1341 1340 1340 1339 1338 1338 1337 1337 1336 1335 1334 1334 1333 1333 1332 1332 1331 1330 1330 1330 1329 1328 1327 1325 1324 1324 1326 1327 1327 1325 1324 1323 1323 1323 1324 1324 1325 1325 1325 1324 1324 1323 1323 1323 1323 1323 1322 1322 1323 1323 1323 1324 1324 1324 1323 1323 1323 1323 1323 1323 1322 1322 1321 1321 1320 1320 1319 1319 1318 1318 1317 1316 1316 1316 1317 1318 1318 1319 1319 1319
1341 1341 1340 1340 1339 1339 1338 1337 1337 1336 1335 1334 1334 1333 1333 1332 1332 1331 1330 1330 1329 1328 1328 1327 1327 1327 1326 1326 1324 1323 1322 1322 1323 1324 1324 1323 1322 1322 1322 1321 1322 1323 1323 1323 1323 1323 1322 1322 1321 1322 1322 1321 1320 1320 1321 1321 1322 1322 1322 1322 1322 1322 1322 1322 1322 1321 1321 1320 1320 1319 1319 1319 1318 1318 1317 1317 1316 1316 1316 1316 1316 1316 1317 1318 1318 1318
1339 1338 1338 1338 1337 1336 1335 1334 1333 1333 1332 1331 1331 1330 1330 1329 1328 1328 1327 1326 1326 1325 1324 1323 1323 1323 1323 1323 1322 1321 1320 1320 1321 1322 1321 1320 1320 1320 1319 1319 1320 1320 1321 1321 1320 1320 1320 1320 1320 1320 1320 1319 1319 1319 1319 1319 1320 1320 1320 1320 1320 1320 1320 1320 1320 1320 1320 1319 1319 1318 1318 1318 1318 1317 1317 1316 1315 1315 1315 1315 1315 1315 1315 1316 1317 1318
1337 1337 1336 1335 1334 1334 1333 1332 1331 1330 1330 1329 1328 1328 1327 1327 1326 1325 1325 1324 1323 1323 1323 1322 1321 1320 1320 1319 1319 1318 1318 1318 1318 1318 1318 1318 1318 1318 1318 1318 1318 1318 1318 1318 1319 1319 1319 1318 1318 1318 1318 1317 1317 1317 1318 1318 1318 1318 1318 1318 1318 1319 1319 1319 1319 1319 1318 1318 1318 1318 1317 1317 1317 1316 1316 1315 1315 1314 1314 1314 1314 1314 1314 1314 1315 1316
1336 1335 1334 1333 1333 1332 1331 1330 1329 1328 1327 1326 1325 1325 1324 1323 1323 1322 1322 1321 1321 1319 1318 1318 1317 1316 1316 1316 1316 1315 1315 1315 1315 1315 1316 1315 1315 1315 1316 1316 1316 1316 1317 1317 1317 1317 1317 1317 1316 1316 1316 1316 1315 1316 1316 1317 1317 1317 1317 1317 1317 1317 1317 1318 1318 1318 1317 1317 1317 1316 1316 1316 1316 1316 1315 1315 1314 1314 1313 1313 1313 1313 1313 1313 1313 1314
1334 1333 1332 1331 1331 1330 1329 1328 1327 1326 1325 1324 1323 1322 1321 1321 1320 1319 1318 1318 1317 1316 1315 1315 1314 1314 1313 1313 1313 1312 1312 1312 1312 1312 1313 1312 1313 1313 1314 1314 1314 1314 1314 1314 1314 1314 1314 1314 1314 1314 1314 1314 1314 1314 1314 1315 1315 1316 1316 1316 1315 1315 1316 1316 1316 1316 1316 1316 1316 1315 1315 1315 1315 1315 1314 1314 1314 1313 1313 1313 1313 1313 1313 1313 1313 1313
1332 1331 1330 1329 1328 1328 1327 1326 1325 1324 1323 1322 1321 1320 1319 1318 1317 1316 1315 1315 1314 1314 1313 1313 1312 1311 1310 1310 1309 1309 1309 1309 1309 1309 1310 1310 1310 1311 1312 1312 1312 1313 1313 1312 1312 1312 1312 1312 1312 1312 1313 1313 1313 1313 1313 1313 1314 1314 1315 1314 1314 1314 1314 1315 1315 1315 1315 1315 1315 1314 1314 1314 1314 1314 1314 1313 1313 1313 1313 1312 1312 1312 1312 1312 1313 1313
1330 1329 1328 1327 1326 1325 1324 1324 1323 1322 1321 1320 1319 1318 1317 1316 1315 1314 1313 1313 1312 1311 1311 1311 1310 1309 1308 1307 1306 1306 1306 1306 1306 1306 1307 1307 1308 1309 1310 1310 1310 1310 1311 1310 1310 1310 1310 1310 1310 1310 1310 1311 1311 1311 1311 1311 1312 1313 1313 1313 1313 1313 1313 1313 1313 1313 1313 1313 1313 1313 1313 1313 1313 1313 1313 1313 1313 1312 1312 1312 1312 1312 1312 1312 1312 1312
1328 1327 1326 1325 1324 1323 1322 1321 1321 1320 1319 1318 1317 1316 1316 1315 1314 1313 1312 1311 1310 1309 1309 1309 1308 1307 1306 1305 1304 1303 1303 1303 1304 1304 1304 1305 1306 1307 1308 1308 1308 1308 1308 1308 1308 1308 1308 1308 1308 1308 1308 1309 1310 1310 1309 1310 1310 1311 1311 1312 1312 1312 1312 1311 1311 1312 1312 1312 1313 1313 1313 1313 1313 1313 1312 1312 1312 1312 1312 1312 1312 1312 1312 1312 1312 1312
1326 1324 1323 1323 1322 1321 1320 1319 1318 1318 1317 1316 1315 1314 1314 1313 1312 1311 1310 1309 1308 1307 1307 1307 1306 1305 1304 1303 1302 1302 1302 1302 1302 1303 1303 1303 1304 1305 1305 1306 1306 1306 1306 1306 1306 1306 1306 1306 1306 1306 1307 1308 1308 1308 1308 1308 1308 1309 1309 1310 1311 1311 1310 1310 1310 1311 1311 1311 1311 1312 1312 1312 1312 1312 1312 1311 1311 1311 1311 1311 1311 1311 1311 1312 1312 1312
1323 1322 1321 1320 1319 1318 1318 1317 1316 1315 1315 1314 1313 1312 1312 1311 1311 1310 1308 1307 1306 1305 1305 1305 1304 1303 1302 1301 1300 1300 1300 1300 1300 1301 1301 1302 1303 1303 1303 1303 1303 1303 1304 1304 1304 1304 1305 1305 1304 1305 1305 1306 1306 1306 1306 1306 1307 1307 1308 1308 1309 1309 1308 1309 1309 1309 1310 1310 1310 1310 1311 1311 1311 1311 1311 1311 1311 1311 1311 1311 1311 1311 1311 1311 1312 1312
1321 1320 1319 1318 1317 1317 1316 1315 1314 1314 1313 1312 1311 1311 1310 1309 1309 1308 1307 1306 1305 1304 1303 1303 1303 1302 1300 1299 1299 1299 1299 1298 1298 1299 1299 1299 1300 1300 1301 1301 1301 1301 1302 1302 1302 1303 1303 1303 1303 1303 1304 1304 1304 1304 1304 1305 1305 1306 1306 1307 1307 1307 1307 1307 1308 1308 1308 1309 1309 1309 1310 1310 1310 1310 1310 1310 1310 1310 1310 1310 1310 1310 1311 1311 1311 1312
1320 1319 1318 1317 1316 1315 1314 1313 1313 1312 1311 1310 1309 1308 1308 1307 1307 1306 1305 1304 1303 1303 1302 1302 1301 1301 1299 1298 1298 1298 1297 1297 1297 1297 1297 1297 1297 1298 1298 1298 1298 1299 1299 1300 1300 1301 1301 1301 1302 1302 1303 1303 1302 1302 1302 1303 1304 1304 1305 1305 1305 1305 1305 1305 1306 1306 1307 1308 1308 1308 1309 1309 1309 1309 1309 1309 1309 1310 1310 1310 1310 1310 1310 1311 1311 1312
1318 1318 1317 1316 1314 1313 1313 1312 1311 1310 1309 1308 1307 1306 1306 1305 1305 1304 1303 1302 1302 1301 1301 1300 1299 1298 1297 1297 1296 1296 1296 1295 1295 1295 1295 1295 1295 1295 1296 1296 1297 1297 1298 1298 1298 1299 1299 1299 1300 1300 1301 1301 1301 1301 1301 1302 1302 1303 1303 1303 1304 1304 1304 1303 1304 1305 1306 1306 1307 1307 1308 1308 1308 1308 1308 1308 1308 1309 1309 1309 1310 1310 1310 1310 1311 1312
1317 1316 1315 1314 1313 1312 1311 1310 1309 1308 1307 1306 1305 1304 1303 1303 1303 1302 1301 1300 1300 1299 1299 1298 1297 1297 1296 1295 1295 1294 1294 1293 1293 1293 1293 1293 1293 1293 1294 1294 1295 1295 1296 1297 1297 1297 1297 1298 1298 1298 1298 1299 1299 1300 1300 1300 1301 1301 1302 1302 1302 1302 1302 1302 1303 1303 1304 1304 1305 1306 1306 1307 1307 1307 1307 1308 1308 1308 1308 1309 1309 1309 1310 1310 1311 1311
1315 1314 1313 1312 1311 1310 1309 1308 1308 1307 1305 1304 1303 1302 1302 1301 1301 1300 1300 1299 1298 1298 1297 1297 1296 1295 1294 1294 1293 1293 1293 1292 1292 1292 1292 1292 1292 1292 1292 1293 1293 1294 1294 1295 1295 1296 1296 1296 1296 1296 1297 1298 1298 1298 1299 1299 1299 1300 1300 1300 1300 1301 1301 1301 1301 1302 1303 1303 1303 1304 1305 1305 1306 1306 1306 1307 1307 1307 1308 1308 1308 1309 1310 1310 1310 1311
1313 1313 1312 1311 1310 1309 1308 1307 1306 1305 1304 1303 1302 1301 1301 1300 1299 1299 1298 1298 1297 1297 1296 1295 1294 1293 1292 1292 1291 1291 1291 1291 1290 1290 1290 1290 1290 1290 1291 1291 1292 1293 1293 1293 1294 1294 1295 1295 1295 1295 1295 1295 1296 1297 1297 1298 1298 1298 1298 1298 1298 1299 1299 1299 1300 1300 1301 1302 1302 1303 1303 1304 1304 1305 1305 1306 1306 1306 1307 1307 1308 1308 1309 1310 1310 1310